Content
SEND FEEDBACK

Daily
Averages
Monthly
Summary
United States of America

PRINCEVILLE, ILLINOIS


Home > North America > United States > Illinois
Elevation: 751 feet     Latitude: 40 55N     Longitude: 089 46W

WEATHER
 
SELECT A DAY
Number of Records: 213,034;   Date Range: 1/1/95 - 12/19/14
 
SHARE

PRINT THIS DATA

[ ← Previous Day ]
WEATHER ALMANAC - FEBRUARY 13, 2013
[ Next Day → ]
[ °C ]   °F
Weather ElementAverageHighLow
Temperature35.2 °F46 °F (1:54 pm)25 °F (3:54 am)
Dewpoint26.9 °F30 °F (2:54 pm)21.9 °F (6:54 am)
Humidity73.9 %92 % (3:54 am)47 % (1:54 pm)
Barometer29.83 in29.92 in (1:54 am)29.78 in (1:54 pm)
Wind Speed6.2 mph12.7 mph (3:54 pm)
Weather ElementAverage
Visibility8.3 mi
Wind DirectionSSW (202.2 °)

Weather ElementTotal
Precipitation---
Heating Degree Days29.5 (Base 65)
Averaged from 23 records on February 13, 2013
WEATHER CONDITIONS BREAKOUT
WIND DIRECTION BREAKOUT
WEATHER BY HOUR - FEBRUARY 13, 2013
[ °C ]   °F
Local TimeTemperatureDewpointHumidityBarometerVisibilityWind DirectionWind SpeedGust SpeedPrecipitationEventsConditions
1:54 AM27.0 °F23.0 °F85 %29.92 in7.0 miCalmClear
2:54 AM26.1 °F23.0 °F88 %29.90 in5.0 miCalmClear
3:54 AM25.0 °F23.0 °F92 %29.88 in5.0 miSouth (180°)3.5 mphClear
4:54 AM25.0 °F23.0 °F92 %29.86 in4.0 miSouth (180°)4.6 mphClear
5:54 AM25.0 °F23.0 °F92 %29.85 in4.0 miSSW (200°)4.6 mphClear
6:54 AM25.0 °F21.9 °F88 %29.85 in6.0 miSW (230°)3.5 mphClear
7:54 AM27.0 °F24.1 °F89 %29.85 in4.0 miSouth (190°)4.6 mphClear
8:54 AM32.0 °F27.0 °F82 %29.85 in7.0 miWSW (240°)6.9 mphClear
9:54 AM36.0 °F28.0 °F73 %29.84 in9.0 miSW (230°)8.1 mphClear
10:54 AM39.0 °F28.0 °F65 %29.83 in10.0 miSW (220°)5.8 mphClear
11:54 AM43.0 °F28.0 °F56 %29.81 in10.0 miWSW (240°)8.1 mphClear
12:54 PM45.0 °F28.9 °F53 %29.79 in10.0 miSW (230°)11.5 mphClear
1:54 PM46.0 °F27.0 °F47 %29.78 in10.0 miWSW (250°)11.5 mphClear
2:54 PM46.0 °F30.0 °F54 %29.78 in10.0 miWSW (250°)10.4 mphClear
3:54 PM46.0 °F28.9 °F51 %29.79 in10.0 miWSW (250°)12.7 mphClear
4:54 PM44.1 °F30.0 °F58 %29.80 in10.0 miWest (270°)9.2 mphClear
5:54 PM41.0 °F30.0 °F65 %29.81 in10.0 miWSW (250°)5.8 mphClear
6:54 PM39.9 °F30.0 °F68 %29.82 in10.0 miWSW (250°)4.6 mphClear
7:54 PM36.0 °F28.9 °F76 %29.82 in10.0 miSSW (200°)3.5 mphClear
8:54 PM34.0 °F28.0 °F79 %29.82 in10.0 miSSW (210°)5.8 mphClear
9:54 PM32.0 °F27.0 °F82 %29.80 in10.0 miSouth (180°)4.6 mphClear
10:54 PM34.0 °F28.9 °F82 %29.80 in10.0 miSSW (200°)5.8 mphScattered Clouds
11:54 PM35.1 °F30.0 °F82 %29.78 in10.0 miSSW (200°)8.1 mphOvercast
Hourly data recorded from KPIA, located miles away from Princeville, Illinois







STORIES FROM OUR PARTNERS